When you browse on this site, cookies collect data to enhance your experience and personalize the content and advertising you see.
Visit our Privacy Policy to learn more. By continuing to use the site, you agree to this use of cookies and data.
  • In Slovakia
  • List of Countries
  • For 7 days
  • Water Temperature
  • Weather Map
  • Weather Widgets
  • user-avatar
    Login

    Hourly Weather Lipka

    Today, 19 August, Monday

    Time Temperature Precipitation Wind Pressure Humidity
    00:00 +17°C° 0 mm 2 mps 744 mmHg 89%
    01:00 +16°C° 0 mm 3 mps 744 mmHg 90%
    02:00 +16°C° 0 mm 3 mps 744 mmHg 90%
    03:00 +16°C° 0 mm 3 mps 744 mmHg 91%
    04:00 +16°C° 0 mm 3 mps 744 mmHg 91%
    05:00 +16°C° 0 mm 3 mps 744 mmHg 92%
    06:00 +17°C° 0 mm 3 mps 744 mmHg 89%
    07:00 +19°C° 0 mm 4 mps 744 mmHg 87%
    08:00 +20°C° 0 mm 4 mps 745 mmHg 84%
    09:00 +22°C° 0 mm 4 mps 745 mmHg 79%
    10:00 +25°C° 0 mm 4 mps 745 mmHg 74%
    11:00 +27°C° 0 mm 4 mps 745 mmHg 69%
    12:00 +27°C° 0.2 mm 4 mps 745 mmHg 68%
    13:00 +28°C° 0.2 mm 4 mps 745 mmHg 66%
    14:00 +29°C° 0.2 mm 4 mps 745 mmHg 65%
    15:00 +28°C° 0.9 mm 4 mps 745 mmHg 68%
    16:00 +28°C° 0.9 mm 3 mps 745 mmHg 72%
    17:00 +28°C° 0.9 mm 3 mps 745 mmHg 75%
    18:00 +26°C° 0.2 mm 3 mps 745 mmHg 80%
    19:00 +25°C° 0.2 mm 2 mps 746 mmHg 84%
    20:00 +23°C° 0.2 mm 2 mps 746 mmHg 88%
    21:00 +23°C° 1.4 mm 2 mps 746 mmHg 90%
    22:00 +21°C° 1.4 mm 3 mps 746 mmHg 92%
    23:00 +20°C° 1.4 mm 3 mps 746 mmHg 94%

    Tomorrow, 20 August, Tuesday

    Time Temperature Precipitation Wind Pressure Humidity
    00:00 +20°C° 1.3 mm 2 mps 746 mmHg 95%
    01:00 +20°C° 1.3 mm 2 mps 747 mmHg 96%
    02:00 +21°C° 1.3 mm 1 mps 747 mmHg 96%
    03:00 +21°C° 0.2 mm 1 mps 747 mmHg 97%
    04:00 +20°C° 0.2 mm 2 mps 747 mmHg 97%
    05:00 +19°C° 0.2 mm 2 mps 747 mmHg 97%
    06:00 +20°C° 0.8 mm 2 mps 747 mmHg 96%
    07:00 +20°C° 0.8 mm 2 mps 748 mmHg 94%
    08:00 +21°C° 0.8 mm 2 mps 748 mmHg 93%
    09:00 +23°C° 0 mm 2 mps 748 mmHg 89%
    10:00 +24°C° 0 mm 2 mps 749 mmHg 86%
    11:00 +25°C° 0 mm 2 mps 749 mmHg 82%
    12:00 +25°C° 0.1 mm 2 mps 749 mmHg 79%
    13:00 +26°C° 0.1 mm 2 mps 749 mmHg 76%
    14:00 +26°C° 0.1 mm 3 mps 750 mmHg 73%
    15:00 +26°C° 0.1 mm 3 mps 749 mmHg 75%
    16:00 +26°C° 0.1 mm 3 mps 749 mmHg 76%
    17:00 +25°C° 0.1 mm 3 mps 749 mmHg 77%
    18:00 +24°C° 0 mm 3 mps 750 mmHg 82%
    19:00 +21°C° 0 mm 3 mps 750 mmHg 87%
    20:00 +20°C° 0 mm 2 mps 750 mmHg 92%
    21:00 +19°C° 0 mm 2 mps 750 mmHg 93%
    22:00 +19°C° 0 mm 2 mps 750 mmHg 94%
    23:00 +18°C° 0 mm 2 mps 750 mmHg 95%

    Day after tomorrow, 21 August, Wednesday

    Time Temperature Precipitation Wind Pressure Humidity
    00:00 +18°C° 0 mm 2 mps 750 mmHg 95%
    01:00 +18°C° 0 mm 2 mps 750 mmHg 95%
    02:00 +18°C° 0 mm 2 mps 750 mmHg 96%
    03:00 +17°C° 0 mm 2 mps 750 mmHg 96%
    04:00 +17°C° 0 mm 2 mps 750 mmHg 96%
    05:00 +17°C° 0 mm 2 mps 749 mmHg 97%
    06:00 +18°C° 0 mm 2 mps 749 mmHg 95%
    07:00 +19°C° 0 mm 2 mps 749 mmHg 93%
    08:00 +21°C° 0 mm 2 mps 749 mmHg 91%
    09:00 +23°C° 0 mm 2 mps 749 mmHg 87%
    10:00 +24°C° 0 mm 2 mps 749 mmHg 84%
    11:00 +25°C° 0 mm 2 mps 749 mmHg 80%
    12:00 +26°C° 0.3 mm 2 mps 749 mmHg 79%
    13:00 +26°C° 0.3 mm 2 mps 748 mmHg 78%
    14:00 +27°C° 0.3 mm 2 mps 748 mmHg 76%
    15:00 +26°C° 1.5 mm 1 mps 748 mmHg 80%
    16:00 +25°C° 1.5 mm 1 mps 748 mmHg 84%
    17:00 +24°C° 1.5 mm 1 mps 748 mmHg 88%
    18:00 +23°C° 1.2 mm 1 mps 748 mmHg 89%
    19:00 +23°C° 1.2 mm 2 mps 748 mmHg 91%
    20:00 +21°C° 1.2 mm 2 mps 748 mmHg 93%
    21:00 +20°C° 0.2 mm 3 mps 748 mmHg 94%
    22:00 +20°C° 0.2 mm 3 mps 749 mmHg 95%
    23:00 +19°C° 0.2 mm 4 mps 749 mmHg 97%

    22 August, Thursday

    Time Temperature Precipitation Wind Pressure Humidity
    00:00 +19°C° 0 mm 4 mps 749 mmHg 96%
    01:00 +18°C° 0 mm 4 mps 749 mmHg 95%
    02:00 +18°C° 0 mm 4 mps 749 mmHg 95%
    03:00 +17°C° 0 mm 4 mps 749 mmHg 94%
    04:00 +16°C° 0 mm 5 mps 749 mmHg 93%
    05:00 +16°C° 0 mm 5 mps 749 mmHg 92%
    06:00 +16°C° 0 mm 5 mps 750 mmHg 92%
    07:00 +17°C° 0 mm 4 mps 750 mmHg 91%
    08:00 +15°C° 0 mm 4 mps 750 mmHg 91%
    09:00 +17°C° 0 mm 4 mps 750 mmHg 88%
    10:00 +18°C° 0 mm 4 mps 751 mmHg 85%
    11:00 +19°C° 0 mm 4 mps 751 mmHg 82%
    12:00 +20°C° 0 mm 4 mps 751 mmHg 79%
    13:00 +20°C° 0 mm 4 mps 751 mmHg 75%
    14:00 +21°C° 0 mm 4 mps 751 mmHg 72%
    15:00 +21°C° 0 mm 4 mps 751 mmHg 74%
    16:00 +21°C° 0 mm 4 mps 751 mmHg 76%
    17:00 +20°C° 0 mm 3 mps 751 mmHg 77%
    18:00 +19°C° 0 mm 3 mps 751 mmHg 81%
    19:00 +18°C° 0 mm 2 mps 751 mmHg 85%
    20:00 +17°C° 0 mm 2 mps 752 mmHg 89%
    21:00 +16°C° 0 mm 2 mps 752 mmHg 90%
    22:00 +16°C° 0 mm 2 mps 752 mmHg 91%
    23:00 +15°C° 0 mm 2 mps 752 mmHg 92%

    23 August, Friday

    Time Temperature Precipitation Wind Pressure Humidity
    00:00 +15°C° 0 mm 2 mps 752 mmHg 92%
    01:00 +14°C° 0 mm 2 mps 752 mmHg 93%
    02:00 +14°C° 0 mm 2 mps 752 mmHg 93%
    03:00 +14°C° 0 mm 2 mps 752 mmHg 94%
    04:00 +13°C° 0 mm 2 mps 752 mmHg 94%
    05:00 +13°C° 0 mm 2 mps 752 mmHg 94%
    06:00 +15°C° 0 mm 2 mps 752 mmHg 91%
    07:00 +16°C° 0 mm 2 mps 752 mmHg 87%
    08:00 +17°C° 0 mm 2 mps 753 mmHg 83%
    09:00 +19°C° 0 mm 2 mps 753 mmHg 78%
    10:00 +20°C° 0 mm 2 mps 753 mmHg 72%
    11:00 +21°C° 0 mm 2 mps 753 mmHg 66%
    12:00 +23°C° 0 mm 2 mps 753 mmHg 63%
    13:00 +24°C° 0 mm 2 mps 753 mmHg 61%
    14:00 +24°C° 0 mm 2 mps 753 mmHg 58%
    15:00 +24°C° 0 mm 2 mps 753 mmHg 60%
    16:00 +22°C° 0 mm 3 mps 753 mmHg 63%
    17:00 +22°C° 0 mm 3 mps 752 mmHg 66%
    18:00 +20°C° 0 mm 2 mps 753 mmHg 69%
    19:00 +18°C° 0 mm 2 mps 753 mmHg 72%
    20:00 +16°C° 0 mm 2 mps 753 mmHg 76%
    21:00 +16°C° 0 mm 2 mps 753 mmHg 76%
    22:00 +15°C° 0 mm 2 mps 753 mmHg 76%
    23:00 +14°C° 0 mm 2 mps 753 mmHg 76%

    24 August, Saturday

    Time Temperature Precipitation Wind Pressure Humidity
    00:00 +14°C° 0 mm 2 mps 753 mmHg 79%
    01:00 +13°C° 0 mm 1 mps 754 mmHg 81%
    02:00 +13°C° 0 mm 1 mps 754 mmHg 84%
    03:00 +13°C° 0 mm 1 mps 754 mmHg 85%
    04:00 +12°C° 0 mm 1 mps 754 mmHg 86%
    05:00 +12°C° 0 mm 1 mps 753 mmHg 88%
    06:00 +14°C° 0 mm 1 mps 754 mmHg 83%
    07:00 +15°C° 0 mm 1 mps 754 mmHg 78%
    08:00 +17°C° 0 mm 2 mps 754 mmHg 74%
    09:00 +18°C° 0 mm 2 mps 754 mmHg 69%
    10:00 +20°C° 0 mm 2 mps 754 mmHg 64%
    11:00 +21°C° 0 mm 2 mps 754 mmHg 59%
    12:00 +23°C° 0 mm 2 mps 754 mmHg 57%
    13:00 +23°C° 0 mm 2 mps 754 mmHg 55%
    14:00 +24°C° 0 mm 2 mps 753 mmHg 53%
    15:00 +24°C° 0 mm 2 mps 753 mmHg 56%
    16:00 +23°C° 0 mm 2 mps 753 mmHg 59%
    17:00 +23°C° 0 mm 2 mps 753 mmHg 62%
    18:00 +20°C° 0 mm 2 mps 753 mmHg 67%
    19:00 +19°C° 0 mm 2 mps 753 mmHg 72%
    20:00 +17°C° 0 mm 2 mps 753 mmHg 77%
    21:00 +16°C° 0 mm 2 mps 753 mmHg 78%
    22:00 +16°C° 0 mm 2 mps 753 mmHg 80%
    23:00 +14°C° 0 mm 3 mps 753 mmHg 82%
    Show more